{"data":{"norad_id":69211,"epoch":"2026-09-20T00:46:14.776608Z","epoch_age_seconds":67339,"freshness":"FRESH","line1":"1 69211U 26115A   26263.03211547  .00017488  00000+0  54253-3 0  9995","line2":"2 69211  97.2834 279.2029 0002021  89.2217 270.9257 15.33457779 19226","mean_motion":15.33457779,"eccentricity":0.0002021,"inclination_deg":97.2834,"raan_deg":279.2029,"arg_perigee_deg":89.2217,"mean_anomaly_deg":270.9257,"bstar":0.00054253,"rev_number":1922,"period_min":93.90542209379,"perigee_km":464.12205334976,"apogee_km":466.88825350817,"semimajor_km":6843.642153429,"source":"CELESTRAK","updated_at":"2026-09-20T09:00:44.101666Z"}}